[Date Prev][Date Next][Thread Prev][Thread Next] - [Date Index][Thread Index][Author Index]
2 Line ISS Keps 3-14
- Subject: [sarex] 2 Line ISS Keps 3-14
- From: "Dave Larsen PhD" <doc@xxxxxxxxxxx>
- Date: Sun, 13 Mar 2005 19:21:26 -0800
ISS
1 25544U 98067A 05072.99749008 .00373368 00000-0 28097-2 0 89
2 25544 051.6472 027.8898 0003656 196.4695 291.4678 15.70843554360715
----
Via the sarex mailing list at AMSAT.ORG courtesy of AMSAT-NA.
To unsubscribe, send "unsubscribe sarex" to Majordomo@amsat.org
AMSAT Home